This demonstration page uses our WeatherBlox Daily Observations layout. Learn more.

Left ArrowRight Arrow

Hourly Observations for September 5, 2021

Temp ( °F °C ) Dew Point ( °F °C ) Humidity (%) Winds ( mph kmh ) Pressure ( in mb ) Visibility ( mi km ) Precip ( " mm )
12:54 am 00:54 Clear 64 17.8 59 15 84 84 N N/A 30.01 1016 10 16 N/A
1:54 am 01:54 Clear 63 17.2 59 15 87 87 N N/A 30.01 1016 10 16 N/A
2:54 am 02:54 Clear 60 15.6 57 13.9 90 90 N N/A 30.00 1016 10 16 N/A
3:54 am 03:54 Clear 58 14.4 55 12.8 90 90 N N/A 30.01 1016 10 16 N/A
4:54 am 04:54 Partly Cloudy 61 16.1 57 13.9 87 87 NW 3 6 30.02 1017 10 16 N/A
5:54 am 05:54 Mostly Clear 63 17.2 58 14.4 84 84 N N/A 30.02 1017 10 16 N/A
6:54 am 06:54 Clear 62 16.7 59 15 90 90 S 3 6 30.00 1016 10 16 N/A
7:54 am 07:54 Sunny 64 17.8 60 15.6 87 87 NNE 10 17 30.00 1016 10 16 N/A
8:54 am 08:54 Sunny 66 18.9 61 16.1 84 84 SSE 3 6 30.01 1016 10 16 N/A
9:54 am 09:54 Sunny 71 21.7 62 16.7 73 73 N N/A 30.02 1017 10 16 N/A
10:54 am 10:54 Sunny 78 25.6 56 13.3 47 47 WNW 8 13 30.04 1017 10 16 N/A
11:54 am 11:54 Sunny 79 26.1 58 14.4 49 49 WSW 12 19 30.02 1017 10 16 N/A
12:54 pm 12:54 Sunny 80 26.7 59 15 49 49 SSW 6 9 29.99 1016 10 16 N/A
1:54 pm 13:54 Sunny 82 27.8 59 15 46 46 SSW 10 17 29.97 1015 10 16 N/A
2:54 pm 14:54 Sunny 83 28.3 59 15 44 44 undefined N/A 29.96 1015 10 16 N/A
3:54 pm 15:54 Sunny 85 29.4 60 15.6 43 43 WSW 8 13 29.94 1014 10 16 N/A
4:54 pm 16:54 Sunny 85 29.4 63 17.2 48 48 SSW 10 17 29.93 1013 10 16 N/A
5:54 pm 17:54 Sunny 85 29.4 56 13.3 37 37 WSW 13 20 29.93 1013 10 16 N/A
6:54 pm 18:54 Sunny 83 28.3 58 14.4 43 43 SW 8 13 29.93 1014 10 16 N/A
7:54 pm 19:54 Clear 78 25.6 60 15.6 54 54 SSW 6 9 29.92 1013 10 16 N/A
8:54 pm 20:54 Clear 74 23.3 62 16.7 67 67 SSW 5 7 29.94 1014 10 16 N/A
9:54 pm 21:54 Clear 72 22.2 61 16.1 68 68 SE 3 6 29.95 1014 10 16 N/A
10:54 pm 22:54 Clear 72 22.2 61 16.1 68 68 S 5 7 29.96 1014 10 16 N/A
11:54 pm 23:54 Clear 69 20.6 61 16.1 76 76 SSE 5 7 29.96 1015 10 16 N/A

Powered by AerisWeather